Ukiah, CA

6:42 AM PDT on July 22, 2017 (GMT -0700)
Ukiah Municipal

Weather History for KUKI - November, 2010

Change the Weather History Date:

Sunday, November 28, 2010

  Actual Average Record
Temperature  
Mean Temperature 40 °F 47 °F  
Max Temperature 52 °F 58 °F 75 °F (1954)
Min Temperature 28 °F 37 °F 20 °F (1919)
Degree Days  
Heating Degree Days 25 18  
Month to date heating degree days 398 387  
Since 1 July heating degree days 589 587  
Cooling Degree Days 0 0  
Month to date cooling degree days 0 0  
Year to date cooling degree days 783 835  
Moisture  
Dew Point 33 °F    
Average Humidity 77    
Maximum Humidity 100    
Minimum Humidity 54    
Precipitation  
Precipitation 0.00 in 0.15 in 2.18 in (1982)
Month to date precipitation 3.83 3.87  
Year to date precipitation 43.26 30.00  
Since 1 July precipitation 10.78  
Snow  
Snow 0.00 in - - ()
Month to date snowfall 0.0  
Since 1 July snowfall 0.0  
Since 1 September snowfall 0.0  
Snow Depth 0.00 in    
Sea Level Pressure  
Sea Level Pressure 30.17 in    
Wind  
Wind Speed 1 mph (WNW)    
Max Wind Speed 9 mph    
Max Gust Speed -    
Visibility 8 miles    
Events      
T = Trace of Precipitation, MM = Missing Value Source: NWS Daily Summary

Daily Weather History Graph

Daily Weather History Graph

Search for Another Location

Airport or City:

Trip Planner

Search our weather history database for the weather conditions in past years. The results will help you decide how hot, cold, wet, or windy it might be!

Date:

Astronomy

Nov. 28, 2010 Rise Set
Actual Time 7:10 AM PST 4:51 PM PST
Civil Twilight 6:40 AM PST 5:20 PM PST
Nautical Twilight 6:07 AM PST 5:53 PM PST
Astronomical Twilight 5:35 AM PST 6:25 PM PST
Moon No Moon Rise 12:22 PM PST (11/28)
Length of Visible Light 10h 40m
Length of Day
9h 41m
Waning Gibbous, 50% of the Moon is Illuminated
Nov 28
Waning Gibbous
Nov 28
Last Quarter
Dec 5
New
Dec 13
First Quarter
Dec 21
Full

Hourly Weather History & Observations

Time (PST) Temp. Windchill Dew Point Humidity Pressure Visibility Wind Dir Wind Speed Gust Speed Precip Events Conditions
12:56 AM 34.0 °F - 32.0 °F 92% 30.03 in 9.0 mi Calm Calm - N/A   Clear
1:56 AM 32.0 °F - 32.0 °F 100% 30.04 in 6.0 mi Calm Calm - N/A   Clear
2:56 AM 32.0 °F - 30.9 °F 96% 30.06 in 8.0 mi Calm Calm - N/A   Clear
3:56 AM 30.0 °F - 30.0 °F 100% 30.07 in 7.0 mi Calm Calm - N/A   Clear
4:56 AM 32.0 °F - 30.9 °F 96% 30.09 in 8.0 mi Calm Calm - N/A   Clear
5:56 AM 28.9 °F - 28.0 °F 96% 30.11 in 8.0 mi Calm Calm - N/A   Clear
6:56 AM 28.9 °F - 28.9 °F 100% 30.13 in 10.0 mi Calm Calm - N/A   Clear
7:28 AM 28.4 °F - 28.4 °F 100% 30.15 in 1.8 mi Calm Calm - N/A   Clear
7:37 AM 30.2 °F - 28.4 °F 93% 30.15 in 3.0 mi Calm Calm - N/A   Clear
7:56 AM 30.2 °F - 30.2 °F 100% 30.16 in 7.0 mi Calm Calm - N/A   Clear
8:56 AM 37.0 °F - 34.0 °F 89% 30.18 in 10.0 mi Calm Calm - N/A   Clear
9:56 AM 42.1 °F - 36.0 °F 79% 30.18 in 10.0 mi Calm Calm - 0.00 in   Clear
10:56 AM 44.1 °F - 35.1 °F 71% 30.19 in 10.0 mi Calm Calm - N/A   Clear
11:56 AM 46.0 °F 44.8 °F 37.0 °F 71% 30.17 in 10.0 mi Variable 3.5 mph - N/A   Clear
12:56 PM 48.9 °F - 37.0 °F 64% 30.16 in 10.0 mi Calm Calm - N/A   Clear
1:56 PM 51.1 °F - 35.1 °F 54% 30.15 in 10.0 mi WNW 4.6 mph - N/A   Clear
2:56 PM 51.1 °F - 35.1 °F 54% 30.15 in 10.0 mi WNW 9.2 mph - N/A   Clear
3:56 PM 48.0 °F - 36.0 °F 63% 30.17 in 10.0 mi West 5.8 mph - N/A   Clear
4:56 PM 46.0 °F - 37.0 °F 71% 30.19 in 10.0 mi Calm Calm - N/A   Clear
5:56 PM 41.0 °F - 35.6 °F 81% 30.21 in 10.0 mi Calm Calm - N/A   Clear
6:56 PM 39.9 °F - 36.0 °F 86% 30.23 in 10.0 mi Calm Calm - N/A   Clear
7:56 PM 37.9 °F - 35.1 °F 89% 30.25 in 6.0 mi Calm Calm - N/A   Clear
8:56 PM 37.0 °F - 35.1 °F 93% 30.26 in 10.0 mi Calm Calm - N/A   Clear
9:56 PM 34.0 °F - 32.0 °F 92% 30.28 in 6.0 mi Calm Calm - N/A   Clear
10:56 PM 34.0 °F 31.0 °F 33.1 °F 96% 30.29 in 5.0 mi WNW 3.5 mph - N/A   Clear
11:56 PM 32.0 °F - 30.9 °F 96% 30.30 in 7.0 mi Calm Calm - N/A   Clear